Starlink 5559

operational
NORAD ID: 56335 Int'l Des: 2023-058 Owner: SPXS Country: US Constellation: starlink
LEOCIRCULARRETROGRADESSO

Starlink 5559について

説明を読み込み中...

リアルタイム位置

3D地球を読み込み中...

次回通過

高度履歴

Altitude vs Time

uPlot chart will show altitude changes over time

軌道要素

1 56335U 23058U 25304.71810903 -.00000443 00000-0 -26487-4 0 9997
2 56335 97.6024 304.1475 0001799 88.7504 271.3929 15.05643755138796
Epoch: Oct 31, 2025 • Age: 7 hours

現在のステータス

高度 571.3 km
速度 7.57 km/s
衛星直下点 -53.42°S, 63.83°E
打ち上げ日 Apr 27, 2023
運用期間 2.5 years
タイプ internet

技術仕様

分類 Payload
質量 300.00 kg
乾燥質量 260.00 kg
総質量 300.00 kg
長さ 0.20 m
直径 2.80 m
スパン 9.00 m
形状 Box + pan
製造者 SPXS
バスタイプ Starlink
フェーズステータス In Orbit
所有者/国 SPXS/US

大規模コンステレーション

Loading constellations...